Location: Misciano
(43.5000°N, 11.9500°E)
Time: 23:54:29
(UTC+00:00)

Cosmos 2322 - Pass Details

Date: 13 August 2020
Orbit: 842 x 853 km, 71.0° (Epoch: 23 September)

Event Time Altitude Azimuth Distance (km) Brightness Sun altitude
Rises 22:16:30 0° 332° (NNW) 3,410 8.0 -30.6°
Reaches altitude 10° 22:18:58 10° 330° (NNW) 2,470 7.0 -30.7°
Enters shadow 22:23:34 55° 299° (WNW) 1,005 4.2 -30.9°
